STARLINK-35993

Last updated on Wed Dec 31 2025 00:02:06 GMT+0000 (Coordinated Universal Time)

1 66607U 25270V 25364.58321895 .00097790 00000+0 23108-2 0 9999 2 66607 43.0006 89.3357 0003016 259.6701 100.3816 15.40796308 7004
UTC large
Height (km)
Speed (km/s)
/
Latitude / Longitude
Inclination (degrees)
Orbital Period (minutes)
Azimuth
Elevation
Range (km)
Doppler Factor

Next 0 passes for location: London (51.5072 / 0.1276)

Sorry there are no passes over London.